DELTA 1 DEB, 10717

Orbit data source: Space-Track

DELTA 1 DEB, 10717 is space debris in SSO originally from a launch on Thu, 29 Jul 1976 UTC launched from the Air Force Western Test Range (AFWTR). Debris objects in space refer to the collection of defunct objects orbiting the Earth. Examples of debris include non-operational satellites, rocket bodies, and fragments generated from explosions, collisions, or faulty payload assembly.

Loading next visibility...
DELTA 1 DEB details
Identifier
10717, 1976-077AN
Orbit
SSO
Last TLE update16 hours ago
Origin
Flag of USGSFC (US)
ManufacturerUnknown
MissionSpacecraft
Bus & MotorUnknown
MassUnknown
Launch date (UTC)
1976-07-29 (48 years ago)
Launch vehicleUnknown
Launch site
Air Force Western Test Range (AFWTR)
Object type
Payload
Rocket body
Debris
Shape & HBRUnknown
Radar Cross SectionSmall (<0.1 m²)

Expand to show TLE details & history

TLE from 16 hours ago
0 DELTA 1 DEB
1 10717U 76077AN  24360.90903501  .00000018  00000-0  57883-3 0  9998
2 10717 102.5816 333.4796 0099396 163.4070 225.5191 12.23296771161916
Epoch: 2024-12-25T21:49Z
Definitive object data (Epoch: 2024-12-25T21:49:00.624Z)
Latitude27.42617°
Longitude-95.28781°
Altitude1,637.033 km
Speed7.031 km/s
True Right ascension21h 47m 26s
True Declination27° 18' 04"
Sunlit
Object was in daylight at TLE epoch
Visualization TLE readout
Latitude77.36981°
Longitude174.38668°
Altitude1,564.136 km
Speed7.104 km/s
Apparent Right ascension00h 05m 59s
Apparent Declination44° 45' 24"
Sunlit
Object is in daylight
Visualization observer readout
Local Sidereal Time13:13:43
Azimuth11.966° NNE
Elevation-3.97°
Doppler factor1
Orbital elements
Apogee altitude1,654.905 km
Perigee altitude1,496.786 km
Semi-major axis7,953.983 km
Eccentricity0.0099396
Inclination102.5816°
RAAN333.4796°
Arg. of periapsis163.407°
True anomaly224.71349°
Mean anomaly225.5191°
Eccentric anomaly225.11559°
Mean motion3.05961 °/min
BSTAR0.00057883
Orbital period117.66 mins
Loading maneuver chart data...
Loading historical data...
Loading historical data...
Loading historical data...
Loading historical data...
Loading historical data...
Loading historical data...
Loading historical data...

DELTA 1 DEB Visibility forecast

Observer location: undefined°, undefined

Span
Click to sort rows by Start time (UTC) header in descending order
Start Az.
Max El. time (UTC)
Max El. Az.
Max El.
End time (UTC)
End Az.
7 mins2024-12-26 13:58:58.594Z340.833° N2024-12-26 14:01:58.594Z319.122° NNW14.018°2024-12-26 14:05:58.594Z289.77° WNW
5 mins2024-12-26 19:31:58.594Z57.375° ENE2024-12-26 19:33:58.594Z43.533° NE12.652°2024-12-26 19:36:58.594Z22.758° NE
16 mins2024-12-26 21:19:58.594Z134.109° SE2024-12-26 21:27:58.594Z54.004° ENE38.88°2024-12-26 21:35:58.594Z350.312° N
15 mins2024-12-26 23:15:58.594Z200.362° SSW2024-12-26 23:22:58.594Z259.636° W31.107°2024-12-26 23:30:58.594Z325.032° NNW
9 mins2024-12-27 09:41:58.594Z59.123° ENE2024-12-27 09:45:58.594Z90.765° ESE17.873°2024-12-27 09:50:58.594Z129.846° SE
15 mins2024-12-27 11:34:58.594Z17.222° NNE2024-12-27 11:42:58.594Z229.611° WSW44.632°2024-12-27 11:49:58.594Z203.485° SW
10 mins2024-12-27 13:31:58.594Z347.656° N2024-12-27 13:36:58.594Z307.827° NW19.276°2024-12-27 13:41:58.594Z269.845° W
|